This is the latest recevied weather packets stored in our database for station/object KD4WXI. If no packets are shown the sender has not sent any weather packets the latest 10 day(s).
| Time | Temp. | Humidity | Pressure | Rain* | Wind** | Luminosity | Snow |
|---|---|---|---|---|---|---|---|
| 1777976219 | 10.56° C | 89% | 1016.5 hPa | 0 mm | - | 0 W/m² | - |
| 1777975914 | 11.11° C | 89% | 1016.3 hPa | 0 mm | - | 0 W/m² | - |
| 1777975611 | 11.11° C | 88% | 1016.5 hPa | 0 mm | - | 0 W/m² | - |
| 1777975308 | 11.11° C | 89% | 1016.6 hPa | 0 mm | - | 0 W/m² | - |
| 1777975003 | 10.56° C | 88% | 1016.4 hPa | 0 mm | - | 0 W/m² | - |
| 1777974701 | 11.11° C | 88% | 1016.4 hPa | 0 mm | - | 0 W/m² | - |
| 1777974397 | 11.11° C | 87% | 1016.3 hPa | 0 mm | - | 0 W/m² | - |
| 1777974093 | 11.11° C | 87% | 1016.3 hPa | 0 mm | - | 0 W/m² | - |
| 1777973790 | 11.11° C | 87% | 1016.5 hPa | 0 mm | - | 0 W/m² | - |
| 1777973487 | 11.11° C | 86% | 1016.3 hPa | 0 mm | - | 0 W/m² | - |
| 1777973184 | 11.67° C | 85% | 1016.2 hPa | 0 mm | - | 0 W/m² | - |
| 1777972883 | 11.67° C | 84% | 1016.2 hPa | 0 mm | - | 0 W/m² | - |
| 1777972579 | 11.67° C | 83% | 1016.1 hPa | 0 mm | - | 0 W/m² | - |
| 1777972278 | 11.67° C | 83% | 1016.2 hPa | 0 mm | - | 0 W/m² | - |
| 1777971975 | 12.22° C | 82% | 1016.1 hPa | 0 mm | - | 0 W/m² | - |
| 1777971673 | 11.67° C | 83% | 1016 hPa | 0 mm | - | 0 W/m² | - |
| 1777971370 | 11.67° C | 83% | 1015.9 hPa | 0 mm | - | 0 W/m² | - |
| 1777971069 | 11.67° C | 83% | 1016 hPa | 0 mm | - | 0 W/m² | - |
| 1777970766 | 11.67° C | 82% | 1016 hPa | 0 mm | - | 0 W/m² | - |
| 1777970464 | 11.67° C | 82% | 1015.9 hPa | 0 mm | - | 0 W/m² | - |
| 1777970161 | 11.67° C | 83% | 1015.8 hPa | 0 mm | - | 0 W/m² | - |
| 1777969857 | 11.67° C | 82% | 1015.7 hPa | 0 mm | - | 0 W/m² | - |
| 1777969553 | 11.67° C | 82% | 1015.7 hPa | 0 mm | - | 0 W/m² | - |
| 1777969250 | 11.67° C | 81% | 1015.6 hPa | 0 mm | - | 0 W/m² | - |
| 1777968947 | 12.22° C | 81% | 1015.6 hPa | 0 mm | - | 0 W/m² | - |
* Rain latest hour (hover to see other rain measurements)
** Current wind speed in m/s (hover to see current wind gust speed)